{"data":{"norad_id":59218,"epoch":"2026-09-20T10:40:01.310304Z","epoch_age_seconds":163622,"freshness":"FRESH","line1":"1 59218U 24046T   26263.44445961  .00001103  00000+0  43782-4 0  9999","line2":"2 59218  53.1616 326.0515 0001396  83.3028 276.8134 15.34393618142926","mean_motion":15.34393618,"eccentricity":0.0001396,"inclination_deg":53.1616,"raan_deg":326.0515,"arg_perigee_deg":83.3028,"mean_anomaly_deg":276.8134,"bstar":4.3782e-5,"rev_number":14292,"period_min":93.848148422108,"perigee_km":461.76722497623,"apogee_km":463.67719286736,"semimajor_km":6840.8592089218,"source":"CELESTRAK","updated_at":"2026-09-21T09:00:34.072137Z"}}